EJU59UB LIRN-LFMN

Flight info

Callsign EJU59UB
Flight time 1h 22m
Altitude 34000
Route VEXUV DCT PNZ DCT RIFFI DCT ELVIN DCT TOBGA/N0415F300 DCT DOBIM DCT AKUTI R16 KERIT
Aircraft A320/M-SDE2E3FGHIJ1RWXYZ/LB1

Departure

Time 2026-05-06 12:25
Airport Naples International Airport (LIRN)

Arrival

Time 2026-05-06 13:48
Airport Nice-Côte d'Azur Airport (LFMN)
Time Latitude Longitude Altitude Speed Heading
2026-05-06 11:58 40.88196 14.28716 282 ft 0 kts 328°
2026-05-06 12:18 40.88181 14.28727 279 ft 4 kts 338°
2026-05-06 12:18 40.88156 14.28735 287 ft 4 kts 359°
2026-05-06 12:19 40.88131 14.28731 287 ft 4 kts 20°
2026-05-06 12:19 40.88108 14.28714 284 ft 4 kts 49°
2026-05-06 12:19 40.88105 14.28709 283 ft 1 kts 52°
2026-05-06 12:21 40.88116 14.28728 287 ft 5 kts 53°
2026-05-06 12:21 40.88152 14.28792 279 ft 12 kts 53°
2026-05-06 12:22 40.88217 14.28905 276 ft 19 kts 52°
2026-05-06 12:22 40.88311 14.29068 272 ft 25 kts 53°
2026-05-06 12:22 40.88399 14.29219 268 ft 15 kts 52°
2026-05-06 12:22 40.88465 14.29333 265 ft 13 kts 52°
2026-05-06 12:23 40.88529 14.29444 262 ft 18 kts 52°
2026-05-06 12:23 40.88614 14.29592 258 ft 23 kts 53°
2026-05-06 12:23 40.88715 14.29767 253 ft 25 kts 53°
2026-05-06 12:23 40.88813 14.29941 247 ft 19 kts 53°
2026-05-06 12:24 40.88903 14.30094 242 ft 23 kts 50°
2026-05-06 12:24 40.89008 14.30273 237 ft 27 kts 53°
2026-05-06 12:24 40.89114 14.30441 228 ft 22 kts 28°
2026-05-06 12:24 40.89206 14.30364 227 ft 18 kts 261°
2026-05-06 12:25 40.89139 14.30211 234 ft 34 kts 238°
2026-05-06 12:25 40.88859 14.29618 253 ft 115 kts 238°
2026-05-06 12:25 40.88327 14.28465 401 ft 165 kts 236°
2026-05-06 12:25 40.87711 14.27216 1269 ft 163 kts 229°
2026-05-06 12:26 40.86778 14.26430 1986 ft 164 kts 188°
2026-05-06 12:26 40.85589 14.26527 2373 ft 179 kts 173°
2026-05-06 12:26 40.84328 14.26741 2933 ft 185 kts 174°
2026-05-06 12:26 40.83047 14.26938 3554 ft 186 kts 175°
2026-05-06 12:27 40.81755 14.27130 4179 ft 189 kts 176°
2026-05-06 12:27 40.80437 14.27320 4780 ft 192 kts 176°
2026-05-06 12:27 40.79098 14.27510 5366 ft 195 kts 177°
2026-05-06 12:27 40.77717 14.27705 5949 ft 199 kts 177°
2026-05-06 12:28 40.76348 14.27896 6494 ft 202 kts 178°
2026-05-06 12:28 40.74920 14.28092 7050 ft 205 kts 178°
2026-05-06 12:28 40.73493 14.28284 7633 ft 207 kts 178°
2026-05-06 12:28 40.72057 14.28401 8187 ft 207 kts 189°
2026-05-06 12:29 40.70663 14.27951 8581 ft 215 kts 209°
2026-05-06 12:29 40.69376 14.26750 8822 ft 236 kts 224°
2026-05-06 12:29 40.68093 14.25240 9126 ft 260 kts 224°
2026-05-06 12:29 40.66683 14.23608 9617 ft 275 kts 223°
2026-05-06 12:30 40.65224 14.21941 10346 ft 280 kts 223°
2026-05-06 12:30 40.63743 14.20259 11155 ft 282 kts 223°
2026-05-06 12:30 40.62249 14.18565 11959 ft 284 kts 223°
2026-05-06 12:30 40.60750 14.16864 12822 ft 286 kts 223°
2026-05-06 12:31 40.59238 14.15147 13699 ft 288 kts 223°
2026-05-06 12:31 40.57718 14.13421 14436 ft 290 kts 223°
2026-05-06 12:31 40.56185 14.11684 15117 ft 292 kts 223°
2026-05-06 12:31 40.54643 14.09934 15781 ft 294 kts 223°
2026-05-06 12:32 40.53087 14.08166 16449 ft 297 kts 223°
2026-05-06 12:32 40.51532 14.06369 17101 ft 299 kts 227°
2026-05-06 12:32 40.50239 14.04241 17743 ft 299 kts 240°
2026-05-06 12:32 40.49364 14.01750 18383 ft 302 kts 250°
2026-05-06 12:33 40.48648 13.99154 18927 ft 304 kts 249°
2026-05-06 12:33 40.47915 13.96536 19494 ft 306 kts 249°
2026-05-06 12:33 40.47174 13.93902 20060 ft 309 kts 249°
2026-05-06 12:33 40.46425 13.91249 20618 ft 311 kts 249°
2026-05-06 12:34 40.45669 13.88575 21186 ft 313 kts 249°
2026-05-06 12:34 40.44905 13.85882 21742 ft 316 kts 249°
2026-05-06 12:34 40.44137 13.83178 22303 ft 318 kts 249°
2026-05-06 12:34 40.43462 13.80403 22847 ft 321 kts 258°
2026-05-06 12:35 40.43348 13.77459 23371 ft 327 kts 274°
2026-05-06 12:35 40.43878 13.74518 23673 ft 342 kts 289°
2026-05-06 12:35 40.45123 13.71755 23792 ft 363 kts 304°
2026-05-06 12:35 40.46741 13.69152 24029 ft 372 kts 304°
2026-05-06 12:36 40.48381 13.66506 24444 ft 376 kts 304°
2026-05-06 12:36 40.50031 13.63830 24909 ft 378 kts 304°
2026-05-06 12:36 40.51683 13.61133 25381 ft 379 kts 303°
2026-05-06 12:36 40.53338 13.58423 25848 ft 381 kts 303°
2026-05-06 12:37 40.54999 13.55697 26318 ft 382 kts 303°
2026-05-06 12:37 40.56664 13.52965 26761 ft 384 kts 303°
2026-05-06 12:37 40.58337 13.50217 27190 ft 386 kts 303°
2026-05-06 12:37 40.60018 13.47453 27628 ft 388 kts 302°
2026-05-06 12:38 40.61706 13.44672 28037 ft 390 kts 302°
2026-05-06 12:38 40.63397 13.41884 28440 ft 391 kts 302°
2026-05-06 12:38 40.65098 13.39076 28837 ft 393 kts 302°
2026-05-06 12:38 40.66807 13.36255 29225 ft 395 kts 302°
2026-05-06 12:39 40.68520 13.33424 29619 ft 396 kts 302°
2026-05-06 12:39 40.70239 13.30577 29995 ft 398 kts 302°
2026-05-06 12:39 40.71966 13.27718 30325 ft 399 kts 302°
2026-05-06 12:39 40.73700 13.24846 30645 ft 401 kts 302°
2026-05-06 12:40 40.75439 13.21965 30963 ft 402 kts 302°
2026-05-06 12:40 40.77181 13.19075 31280 ft 402 kts 302°
2026-05-06 12:40 40.78912 13.16203 31725 ft 400 kts 302°
2026-05-06 12:40 40.80642 13.13333 32198 ft 397 kts 301°
2026-05-06 12:41 40.82356 13.10488 32590 ft 397 kts 301°
2026-05-06 12:41 40.84072 13.07629 32930 ft 397 kts 301°
2026-05-06 12:41 40.85778 13.04779 33314 ft 396 kts 301°
2026-05-06 12:41 40.87479 13.01930 33725 ft 394 kts 301°
2026-05-06 12:42 40.89179 12.99082 33985 ft 393 kts 301°
2026-05-06 12:42 40.90853 12.96290 34024 ft 382 kts 302°
2026-05-06 12:42 40.94444 12.91337 34020 ft 365 kts 306°
2026-05-06 12:43 40.97979 12.86568 34021 ft 361 kts 306°
2026-05-06 12:43 41.01482 12.81809 34021 ft 361 kts 306°
2026-05-06 12:44 41.04978 12.77055 34032 ft 360 kts 306°
2026-05-06 12:44 41.08481 12.72294 34018 ft 361 kts 306°
2026-05-06 12:45 41.11997 12.67503 33998 ft 363 kts 306°
2026-05-06 12:46 41.17305 12.60279 33995 ft 365 kts 306°
2026-05-06 12:46 41.20839 12.55431 33998 ft 366 kts 306°
2026-05-06 12:47 41.24380 12.50569 33999 ft 366 kts 306°
2026-05-06 12:47 41.27951 12.45671 34003 ft 367 kts 306°
2026-05-06 12:48 41.31480 12.40832 34011 ft 367 kts 306°
2026-05-06 12:48 41.35030 12.35961 34031 ft 366 kts 306°
2026-05-06 12:49 41.38575 12.31093 34012 ft 366 kts 306°
2026-05-06 12:49 41.42134 12.26177 34007 ft 366 kts 306°
2026-05-06 12:50 41.45640 12.21330 34008 ft 365 kts 306°
2026-05-06 12:50 41.49156 12.16464 34002 ft 363 kts 305°
2026-05-06 12:51 41.52492 12.11441 34007 ft 360 kts 302°
2026-05-06 12:51 41.55694 12.06264 34005 ft 359 kts 301°
2026-05-06 12:52 41.58889 12.01078 33990 ft 364 kts 301°
2026-05-06 12:52 41.62131 11.95902 33999 ft 366 kts 301°
2026-05-06 12:53 41.65431 11.90668 33993 ft 366 kts 301°
2026-05-06 12:53 41.68153 11.86334 34001 ft 366 kts 301°
2026-05-06 12:54 41.71420 11.81110 33995 ft 366 kts 301°
2026-05-06 12:54 41.74680 11.75892 33999 ft 366 kts 301°
2026-05-06 12:55 41.77947 11.70665 33995 ft 365 kts 301°
2026-05-06 12:55 41.81201 11.65435 33996 ft 364 kts 299°
2026-05-06 12:56 41.84432 11.60225 33982 ft 363 kts 299°
2026-05-06 12:56 41.87661 11.55010 33984 ft 363 kts 299°
2026-05-06 12:57 41.90896 11.49794 33979 ft 363 kts 299°
2026-05-06 12:57 41.94124 11.44577 33974 ft 363 kts 299°
2026-05-06 12:58 41.97346 11.39342 33973 ft 363 kts 299°
2026-05-06 12:58 42.00568 11.34114 33972 ft 363 kts 299°
2026-05-06 12:59 42.03792 11.28876 33975 ft 364 kts 298°
2026-05-06 12:59 42.07011 11.23630 33969 ft 363 kts 298°
2026-05-06 13:00 42.10216 11.18398 33961 ft 362 kts 298°
2026-05-06 13:00 42.13414 11.13171 33955 ft 361 kts 298°
2026-05-06 13:01 42.16601 11.07944 33967 ft 361 kts 298°
2026-05-06 13:01 42.19794 11.02705 33969 ft 361 kts 298°
2026-05-06 13:02 42.22973 10.97487 33954 ft 360 kts 298°
2026-05-06 13:02 42.26144 10.92257 33948 ft 360 kts 298°
2026-05-06 13:03 42.29307 10.87030 33960 ft 360 kts 298°
2026-05-06 13:03 42.32481 10.81797 33952 ft 360 kts 298°
2026-05-06 13:04 42.35649 10.76556 33941 ft 360 kts 298°
2026-05-06 13:04 42.38809 10.71317 33955 ft 360 kts 298°
2026-05-06 13:05 42.41972 10.66073 33951 ft 360 kts 298°
2026-05-06 13:05 42.45127 10.60818 33939 ft 359 kts 298°
2026-05-06 13:06 42.48283 10.55546 33942 ft 362 kts 298°
2026-05-06 13:06 42.51458 10.50220 33937 ft 364 kts 298°
2026-05-06 13:07 42.54648 10.44876 33955 ft 365 kts 299°
2026-05-06 13:07 42.57859 10.39504 33930 ft 368 kts 299°
2026-05-06 13:08 42.61080 10.34106 33934 ft 368 kts 299°
2026-05-06 13:08 42.64296 10.28696 33936 ft 368 kts 299°
2026-05-06 13:09 42.67531 10.23246 33931 ft 368 kts 299°
2026-05-06 13:09 42.70745 10.17822 33931 ft 371 kts 300°
2026-05-06 13:10 42.73994 10.12331 33929 ft 373 kts 300°
2026-05-06 13:10 42.77248 10.06812 33931 ft 374 kts 300°
2026-05-06 13:11 42.80508 10.01288 33928 ft 375 kts 300°
2026-05-06 13:11 42.83769 9.95750 33928 ft 375 kts 300°
2026-05-06 13:12 42.87025 9.90201 33931 ft 375 kts 300°
2026-05-06 13:12 42.90260 9.84632 33928 ft 374 kts 299°
2026-05-06 13:13 42.93342 9.78944 33925 ft 372 kts 297°
2026-05-06 13:13 42.96087 9.73030 33570 ft 360 kts 286°
2026-05-06 13:13 42.97125 9.69925 33178 ft 359 kts 286°
2026-05-06 13:14 42.98171 9.66838 32749 ft 357 kts 286°
2026-05-06 13:14 42.99220 9.63772 32303 ft 356 kts 286°
2026-05-06 13:14 43.00268 9.60714 31863 ft 355 kts 286°
2026-05-06 13:14 43.01313 9.57663 31421 ft 354 kts 286°
2026-05-06 13:15 43.02351 9.54624 30982 ft 353 kts 286°
2026-05-06 13:15 43.03386 9.51584 30555 ft 352 kts 285°
2026-05-06 13:15 43.04417 9.48552 30130 ft 352 kts 285°
2026-05-06 13:15 43.05448 9.45510 29679 ft 351 kts 285°
2026-05-06 13:16 43.06469 9.42487 29245 ft 349 kts 285°
2026-05-06 13:16 43.07482 9.39483 28839 ft 346 kts 286°
2026-05-06 13:16 43.08488 9.36508 28448 ft 343 kts 286°
2026-05-06 13:16 43.09483 9.33559 28054 ft 340 kts 286°
2026-05-06 13:17 43.10473 9.30631 27656 ft 338 kts 286°
2026-05-06 13:17 43.11456 9.27722 27258 ft 336 kts 286°
2026-05-06 13:17 43.12431 9.24826 26859 ft 333 kts 286°
2026-05-06 13:17 43.13395 9.21957 26438 ft 332 kts 286°
2026-05-06 13:18 43.14361 9.19090 26035 ft 330 kts 287°
2026-05-06 13:18 43.15319 9.16241 25621 ft 329 kts 287°
2026-05-06 13:18 43.16272 9.13397 25201 ft 328 kts 287°
2026-05-06 13:18 43.17222 9.10553 24773 ft 328 kts 287°
2026-05-06 13:19 43.18172 9.07710 24347 ft 328 kts 287°
2026-05-06 13:19 43.19124 9.04861 23894 ft 329 kts 287°
2026-05-06 13:19 43.20076 9.02002 23435 ft 330 kts 287°
2026-05-06 13:19 43.21029 8.99143 22947 ft 329 kts 287°
2026-05-06 13:20 43.21974 8.96295 22502 ft 328 kts 287°
2026-05-06 13:20 43.22916 8.93458 22067 ft 326 kts 287°
2026-05-06 13:20 43.23856 8.90628 21628 ft 325 kts 287°
2026-05-06 13:20 43.24791 8.87822 21196 ft 324 kts 287°
2026-05-06 13:21 43.25726 8.85015 20770 ft 322 kts 288°
2026-05-06 13:21 43.26654 8.82222 20351 ft 321 kts 288°
2026-05-06 13:21 43.27576 8.79439 19935 ft 320 kts 288°
2026-05-06 13:21 43.28496 8.76659 19510 ft 319 kts 288°
2026-05-06 13:22 43.29413 8.73890 19092 ft 319 kts 288°
2026-05-06 13:22 43.30328 8.71121 18710 ft 319 kts 287°
2026-05-06 13:22 43.31242 8.68341 18269 ft 319 kts 287°
2026-05-06 13:22 43.32153 8.65570 17816 ft 318 kts 287°
2026-05-06 13:23 43.33064 8.62803 17396 ft 316 kts 288°
2026-05-06 13:23 43.33795 8.60003 17001 ft 308 kts 276°
2026-05-06 13:23 43.34006 8.57140 16716 ft 295 kts 264°
2026-05-06 13:23 43.33811 8.54391 16539 ft 285 kts 259°
2026-05-06 13:24 43.33587 8.51713 16337 ft 278 kts 260°
2026-05-06 13:24 43.33373 8.49101 16141 ft 272 kts 260°
2026-05-06 13:24 43.33166 8.46557 15953 ft 266 kts 260°
2026-05-06 13:24 43.32960 8.44031 15766 ft 259 kts 260°
2026-05-06 13:25 43.32758 8.41594 15586 ft 254 kts 259°
2026-05-06 13:25 43.32559 8.39219 15407 ft 248 kts 259°
2026-05-06 13:25 43.32361 8.36893 15223 ft 244 kts 259°
2026-05-06 13:25 43.32168 8.34614 15064 ft 243 kts 260°
2026-05-06 13:26 43.31969 8.32286 14895 ft 242 kts 260°
2026-05-06 13:26 43.31775 8.29994 14727 ft 242 kts 260°
2026-05-06 13:26 43.31582 8.27706 14548 ft 241 kts 260°
2026-05-06 13:26 43.31387 8.25428 14389 ft 241 kts 260°
2026-05-06 13:27 43.31190 8.23140 14208 ft 241 kts 260°
2026-05-06 13:27 43.30993 8.20854 14037 ft 241 kts 261°
2026-05-06 13:27 43.30796 8.18567 13863 ft 241 kts 261°
2026-05-06 13:27 43.30597 8.16279 13686 ft 241 kts 261°
2026-05-06 13:28 43.30399 8.13989 13504 ft 241 kts 261°
2026-05-06 13:28 43.30322 8.11693 13334 ft 243 kts 271°
2026-05-06 13:28 43.30631 8.09404 13155 ft 246 kts 284°
2026-05-06 13:28 43.31329 8.07245 12979 ft 250 kts 295°
2026-05-06 13:29 43.32191 8.05176 12800 ft 249 kts 295°
2026-05-06 13:29 43.33049 8.03112 12621 ft 249 kts 295°
2026-05-06 13:29 43.33900 8.01051 12442 ft 248 kts 294°
2026-05-06 13:29 43.34749 7.98992 12270 ft 247 kts 295°
2026-05-06 13:30 43.35312 7.97631 12153 ft 247 kts 295°
2026-05-06 13:30 43.36158 7.95587 11989 ft 245 kts 294°
2026-05-06 13:30 43.36997 7.93561 11808 ft 243 kts 294°
2026-05-06 13:30 43.37828 7.91543 11642 ft 242 kts 294°
2026-05-06 13:31 43.38650 7.89541 11467 ft 240 kts 294°
2026-05-06 13:31 43.39474 7.87538 11290 ft 240 kts 294°
2026-05-06 13:31 43.40296 7.85542 11124 ft 240 kts 294°
2026-05-06 13:31 43.41075 7.83523 10949 ft 236 kts 287°
2026-05-06 13:32 43.41556 7.81384 10781 ft 232 kts 276°
2026-05-06 13:32 43.41725 7.79206 10612 ft 230 kts 270°
2026-05-06 13:32 43.41821 7.77004 10446 ft 231 kts 270°
2026-05-06 13:32 43.41919 7.74808 10276 ft 228 kts 270°
2026-05-06 13:33 43.42016 7.72638 10103 ft 229 kts 270°
2026-05-06 13:33 43.42115 7.70448 9935 ft 229 kts 270°
2026-05-06 13:33 43.42216 7.68272 9770 ft 228 kts 270°
2026-05-06 13:33 43.42313 7.66087 9586 ft 229 kts 270°
2026-05-06 13:34 43.42409 7.63901 9419 ft 228 kts 270°
2026-05-06 13:34 43.42505 7.61750 9252 ft 224 kts 270°
2026-05-06 13:34 43.42600 7.59607 9085 ft 225 kts 271°
2026-05-06 13:34 43.42631 7.58883 9030 ft 226 kts 271°
2026-05-06 13:36 43.43357 7.42034 7730 ft 219 kts 271°
2026-05-06 13:36 43.43445 7.39929 7568 ft 220 kts 271°
2026-05-06 13:37 43.43595 7.36252 7287 ft 222 kts 272°
2026-05-06 13:37 43.43685 7.34131 7126 ft 222 kts 272°
2026-05-06 13:37 43.43774 7.32029 6962 ft 219 kts 272°
2026-05-06 13:38 43.43862 7.29935 6800 ft 217 kts 272°
2026-05-06 13:38 43.43947 7.27882 6646 ft 214 kts 272°
2026-05-06 13:38 43.44031 7.25804 6481 ft 219 kts 272°
2026-05-06 13:38 43.44115 7.23715 6327 ft 217 kts 272°
2026-05-06 13:39 43.44198 7.21667 6158 ft 215 kts 272°
2026-05-06 13:39 43.44279 7.19612 6002 ft 213 kts 272°
2026-05-06 13:39 43.44357 7.17589 5843 ft 208 kts 272°
2026-05-06 13:39 43.44434 7.15644 5683 ft 199 kts 272°
2026-05-06 13:40 43.44508 7.13782 5537 ft 191 kts 272°
2026-05-06 13:40 43.44580 7.11960 5405 ft 189 kts 272°
2026-05-06 13:40 43.44651 7.10152 5286 ft 188 kts 272°
2026-05-06 13:40 43.44720 7.08376 5235 ft 186 kts 272°
2026-05-06 13:41 43.44789 7.06609 5181 ft 183 kts 272°
2026-05-06 13:41 43.44857 7.04835 5110 ft 187 kts 272°
2026-05-06 13:41 43.44924 7.03060 5028 ft 185 kts 272°
2026-05-06 13:41 43.44993 7.01283 4943 ft 187 kts 272°
2026-05-06 13:42 43.45127 6.99499 4859 ft 189 kts 287°
2026-05-06 13:42 43.45831 6.98002 4798 ft 187 kts 316°
2026-05-06 13:42 43.46987 6.97267 4687 ft 186 kts 343°
2026-05-06 13:42 43.48274 6.97508 4453 ft 193 kts 19°
2026-05-06 13:43 43.49320 6.98689 4260 ft 194 kts 41°
2026-05-06 13:43 43.50264 6.99985 4050 ft 189 kts 39°
2026-05-06 13:43 43.51175 7.01226 3844 ft 184 kts 40°
2026-05-06 13:43 43.52080 7.02460 3612 ft 183 kts 39°
2026-05-06 13:44 43.52980 7.03688 3374 ft 182 kts 41°
2026-05-06 13:44 43.53875 7.04911 3135 ft 180 kts 40°
2026-05-06 13:44 43.54764 7.06127 2892 ft 179 kts 40°
2026-05-06 13:44 43.55645 7.07331 2644 ft 179 kts 41°
2026-05-06 13:45 43.56521 7.08528 2425 ft 177 kts 41°
2026-05-06 13:45 43.58284 7.10942 1931 ft 179 kts 41°
2026-05-06 13:45 43.59174 7.12160 1711 ft 181 kts 41°
2026-05-06 13:46 43.60063 7.13379 1448 ft 176 kts 43°
2026-05-06 13:46 43.60938 7.14578 1232 ft 177 kts 49°
2026-05-06 13:46 43.61799 7.15760 1001 ft 176 kts 48°
2026-05-06 13:46 43.62666 7.16949 767 ft 176 kts 49°
2026-05-06 13:47 43.63519 7.18121 559 ft 170 kts 47°
2026-05-06 13:47 43.64369 7.19293 362 ft 174 kts 44°
2026-05-06 13:47 43.65232 7.20467 67 ft 175 kts 47°
2026-05-06 13:47 43.66022 7.21578 21 ft 144 kts 47°
2026-05-06 13:48 43.66604 7.22361 21 ft 74 kts 44°
2026-05-06 13:48 43.66812 7.22648 22 ft 37 kts 46°
2026-05-06 13:48 43.66945 7.22755 22 ft 22 kts 340°
2026-05-06 13:48 43.67007 7.22602 24 ft 20 kts 241°
2026-05-06 13:49 43.66902 7.22450 22 ft 23 kts 225°
2026-05-06 13:49 43.66779 7.22284 22 ft 25 kts 224°
2026-05-06 13:49 43.66652 7.22109 22 ft 26 kts 224°
2026-05-06 13:49 43.66601 7.21970 22 ft 15 kts 296°
2026-05-06 13:50 43.66664 7.21933 22 ft 11 kts 29°
2026-05-06 13:50 43.66680 7.21960 22 ft 2 kts 72°
2026-05-06 13:50 43.66674 7.21986 22 ft 3 kts 122°
2026-05-06 13:50 43.66664 7.22001 23 ft 2 kts 133°
2026-05-06 13:51 43.66663 7.22002 22 ft 0 kts 133°